Location: *
(41.7492°S, 135.4150°W)
Time: 00:18:09
(UTC+00:00)

Meteor 2-14 Rocket - Pass Details

Date: 20 September 2021
Orbit: 938 x 956 km, 82.5° (Epoch: 25 October)

Event Time Altitude Azimuth Distance (km) Brightness Sun altitude
Exits shadow 13:02:32 30° 329° (NNW) 1,654 5.3 -21.2°
Maximum altitude 13:05:36 61° 259° (W) 1,086 4.4 -20.7°
Drops below altitude 10° 13:11:47 10° 179° (S) 2,720 7.1 -19.6°
Sets 13:14:21 0° 175° (S) 3,672 7.8 -19.1°
